ASIASAT 9

Last updated on Wed Sep 09 2026 00:03:02 GMT+0000 (Coordinated Universal Time)

1 42942U 17057A 26251.46925993 -.00000381 00000+0 00000+0 0 9995 2 42942 0.0147 130.4871 0002038 32.4616 115.6269 1.00270718 32702
UTC large
Height (km)
Speed (km/s)
/
Latitude / Longitude
Inclination (degrees)
Orbital Period (minutes)
Azimuth
Elevation
Range (km)
Doppler Factor

Next 0 passes for location: London (51.5072 / 0.1276)

No passes found over London.
ASIASAT 9